[[{"header":{"parameterUnit":"m.s-1","parameterCategory":1,"la1":30.2992,"la2":30.254,"lo1":-89.0895,"lo2":-89.0443,"dy":0.0025,"dx":0.0025,"nx":19,"ny":19,"refTime":"2026-04-17T03:00:00:Z","depth":0,"parameterNumber":2,"parameterNumberName":"U-component_of_WINDS"},"data":[0,0,0,1.0133,1.0135,1.0236,1.0236,1.0361,1.0362,0,0,0,0,0,0,0,0,0,0,0,1.0099,1.01,1.0133,1.0135,1.0236,1.0237,1.036,1.0362,0,0,0,0,0,0,0,0,0,0,0,1.0099,1.0099,1.01,1.0135,1.0236,1.0237,1.036,1.0286,0,0,0,0,0,0,0,0,0,0,1.0189,1.0153,1.0099,1.01,1.0136,1.0236,1.0237,1.0282,1.0291,1.0312,0,1.033,0,1.0348,1.037,1.037,0,0,0,1.0138,1.0146,1.0177,1.01,1.0137,1.0236,1.0191,1.0287,1.0296,1.0323,1.0332,1.0336,1.035,1.037,1.0371,1.0483,1.0483,0,0,1.0133,1.0115,1.0171,1.0183,1.0166,1.0188,1.0194,1.0293,1.0301,1.0332,1.0339,1.0352,1.0371,1.0372,1.0483,1.0483,0,0,0,1.0114,1.0111,1.014,1.0178,1.0196,1.0191,1.0198,1.0297,1.0308,1.0341,1.0353,1.0372,1.0373,1.0482,1.0483,1.0483,0,0,0,1.0111,1.01,1.0137,1.0127,1.0194,1.0248,1.02,1.0301,1.0313,1.0353,1.0372,1.0374,1.0482,1.0483,1.0482,1.0486,0,0,0,1.0094,1.0098,1.0112,1.0126,1.0169,1.0247,1.0263,1.0304,1.032,1.037,1.0375,1.0482,1.0482,1.0481,1.0485,1.051,0,0,0,1.007,1.0111,1.0111,1.0162,1.0168,1.0246,1.0263,1.0322,1.0365,1.0372,1.0482,1.0483,1.0481,1.0484,1.0509,1.0526,1.0532,0,0,1.0112,1.0116,1.0147,1.015,1.0223,1.0232,1.0306,1.0362,1.0384,1.0449,1.0452,1.0482,1.0485,1.0509,1.0574,1.0578,0,0,0,1.0155,1.0177,1.02,1.024,1.0284,1.0321,1.0369,1.039,1.0445,1.0413,1.0499,1.0501,1.0516,1.0526,1.0529,1.0543,1.0487,1.0486,1.0486,1.0189,1.0213,1.0267,1.0303,1.0342,1.039,1.0423,1.046,1.0474,1.0494,1.0513,1.0549,1.0559,1.0562,1.0577,1.0526,1.0526,1.0526,1.0526,1.0252,1.0287,1.0305,1.0362,1.0388,1.0438,1.0486,1.0494,1.0544,1.0537,1.0552,1.054,1.0567,1.058,1.0526,1.0526,1.0526,1.0526,1.0526,1.0276,1.0297,1.0322,1.0381,1.0425,1.0461,1.0508,1.0531,1.0552,1.0567,1.0589,1.0589,1.0591,1.0576,1.0576,1.0576,1.0576,1.0576,1.0576,1.0291,1.0319,1.0355,1.0405,1.0433,1.0473,1.0522,1.0551,1.0588,1.0601,1.0601,1.0613,1.0565,1.0552,1.0579,1.0578,1.0578,1.0578,1.0578,1.0344,1.0336,1.0392,1.042,1.048,1.0521,1.055,1.0606,1.0633,1.0656,1.0665,1.0626,1.0631,1.0628,1.0617,1.066,1.066,1.066,1.066,1.0364,1.0369,1.0431,1.0474,1.052,1.0551,1.0613,1.0652,1.0691,1.0709,1.0706,1.0694,1.069,1.0698,1.0694,1.0684,1.0742,1.0742,1.0742,1.0398,1.0408,1.0456,1.0493,1.0542,1.0584,1.0643,1.0693,1.0735,1.0746,1.0724,1.072,1.0701,1.0694,1.0703,1.0696,1.0678,0,0]},{"header":{"parameterUnit":"m.s-1","parameterCategory":1,"la1":30.2992,"la2":30.254,"lo1":-89.0895,"lo2":-89.0443,"dy":0.0025,"dx":0.0025,"nx":19,"ny":19,"refTime":"2026-04-17T03:00:00:Z","depth":0,"parameterNumber":3,"parameterNumberName":"V-component_of_WINDS"},"data":[0,0,0,3.166,3.1662,3.1759,3.1759,3.1874,3.1875,0,0,0,0,0,0,0,0,0,0,0,3.1626,3.1627,3.1659,3.1662,3.1759,3.1759,3.1874,3.1875,0,0,0,0,0,0,0,0,0,0,0,3.1626,3.1627,3.1628,3.1662,3.1759,3.1759,3.1874,3.1803,0,0,0,0,0,0,0,0,0,0,3.1711,3.1676,3.1627,3.1628,3.1663,3.1759,3.1759,3.18,3.1808,3.1827,0,3.1843,0,3.1861,3.1882,3.1883,0,0,0,3.1665,3.1669,3.17,3.1628,3.1664,3.1758,3.1716,3.1805,3.1813,3.1837,3.1845,3.1849,3.1863,3.1883,3.1884,3.1985,3.1986,0,0,3.1659,3.1641,3.1694,3.1705,3.1691,3.1713,3.1719,3.181,3.1817,3.1845,3.1852,3.1865,3.1884,3.1885,3.1985,3.1985,0,0,0,3.1642,3.1637,3.1666,3.17,3.1719,3.1715,3.1722,3.1813,3.1824,3.1854,3.1866,3.1884,3.1886,3.1985,3.1985,3.1984,0,0,0,3.1639,3.1627,3.1663,3.1653,3.1717,3.1767,3.1723,3.1818,3.1829,3.1866,3.1884,3.1887,3.1984,3.1985,3.1983,3.1986,0,0,0,3.1621,3.1625,3.1638,3.1651,3.1693,3.1766,3.1782,3.182,3.1836,3.1883,3.1887,3.1984,3.1985,3.1983,3.1985,3.2008,0,0,0,3.1597,3.1634,3.1637,3.1684,3.1692,3.1766,3.1782,3.1838,3.1877,3.1885,3.1984,3.1985,3.1983,3.1985,3.2007,3.2022,3.2028,0,0,3.1634,3.1638,3.1667,3.1673,3.1741,3.1752,3.1821,3.1874,3.1894,3.1953,3.1956,3.1984,3.1985,3.2007,3.2064,3.2068,0,0,0,3.1672,3.1693,3.1715,3.1753,3.1796,3.1833,3.1878,3.1898,3.195,3.1921,3.1999,3.2,3.2014,3.2022,3.2026,3.2039,3.1988,3.1988,3.1988,3.1696,3.1722,3.1772,3.181,3.1847,3.1894,3.1926,3.1961,3.1975,3.1993,3.201,3.2042,3.2051,3.2054,3.2067,3.2022,3.2022,3.2022,3.2022,3.1751,3.1784,3.1805,3.186,3.1887,3.1934,3.1981,3.199,3.2037,3.2031,3.2044,3.2034,3.2057,3.207,3.2022,3.2022,3.2022,3.2022,3.2022,3.1769,3.1789,3.1814,3.1873,3.1915,3.1953,3.1997,3.2021,3.2042,3.2056,3.2077,3.2077,3.2079,3.2064,3.2065,3.2065,3.2065,3.2065,3.2065,3.1776,3.1805,3.184,3.1891,3.1919,3.1959,3.2008,3.2036,3.2073,3.2086,3.2086,3.2098,3.2055,3.2043,3.2067,3.2066,3.2066,3.2066,3.2066,3.182,3.1815,3.1869,3.1898,3.1959,3.2,3.203,3.2085,3.2112,3.2133,3.2144,3.2108,3.2114,3.2111,3.2101,3.2138,3.2138,3.2138,3.2138,3.1834,3.184,3.1902,3.1946,3.1992,3.2025,3.2085,3.2125,3.2164,3.2182,3.2181,3.217,3.2166,3.2174,3.217,3.2161,3.2213,3.2213,3.2213,3.1862,3.1874,3.1921,3.1961,3.2012,3.2054,3.2112,3.2161,3.2204,3.2216,3.2197,3.2193,3.2177,3.217,3.218,3.2173,3.2157,0,0]}]]